Language: 


Des rapports , des résumés tant et plus, au choix de chacun....


Données statistiques de la station
Quotidien Rapport Janvier 16, 2018 Unités:  Anglais    Métrique   les deux
« Précédent Jour
Suivant Jour »
Quotidien Hebdomadaire Mensuel Annuel Actuel
  Haut: Bas: Moyen:
Température: TemperatureC °F 3.9 °F 6.7 °F
Pt de rosée: DewpointC °F 0.0 °F 3.6 °F
Humidité: Humidity % 58 % 79 %
Vitesse du vent: WindSpeedKMH mph 0.0 mph 16.7 mph
Rafales: WindSpeedGustKMH mph - -
Vent:- - WSW
Pression: PressurehPa in 992.1 in -
Précipitation: 0.5 in    
Historical Graphs
 
 
Données statistiques pour Janvier 16, 2018
Heure Température Point de rosée Pression Vent Vitesse du vent Refales Humidité Pluie (taux horaire)
TemperatureC °F DewpointC °F PressurehPa in Calm     Humidity % HourlyPrecipMM in
00:01 7.2 °F 6.0 °F 995.1 in West 13.7 mph 25.9 mph 90 % 0.0 in
00:07 7.1 °F 6.0 °F 995.1 in WSW 16.6 mph 23.0 mph 90 % 0.0 in
00:17 7.0 °F 6.0 °F 996.2 in West 12.6 mph 20.6 mph 90 % 0.0 in
00:25 6.9 °F 6.0 °F 995.1 in WSW 16.9 mph 20.9 mph 91 % 0.0 in
00:32 6.9 °F 6.0 °F 995.1 in WSW 9.7 mph 20.6 mph 91 % 0.0 in
00:42 6.9 °F 6.0 °F 994.1 in WSW 12.6 mph 19.5 mph 92 % 0.0 in
00:50 7.0 °F 6.0 °F 994.1 in West 20.9 mph 25.3 mph 91 % 0.0 in
01:03 7.3 °F 5.0 °F 995.1 in WSW 15.4 mph 28.5 mph 85 % 0.0 in
01:10 7.1 °F 4.0 °F 995.1 in WSW 16.3 mph 25.3 mph 82 % 0.0 in
01:22 7.0 °F 4.0 °F 995.1 in West 19.5 mph 24.5 mph 82 % 0.0 in
01:27 7.1 °F 4.0 °F 995.1 in WSW 12.2 mph 24.5 mph 83 % 0.0 in
01:34 7.3 °F 5.0 °F 995.1 in West 31.4 mph 32.0 mph 84 % 0.0 in
01:46 7.3 °F 5.0 °F 994.1 in WSW 17.2 mph 37.0 mph 86 % 0.0 in
02:03 7.1 °F 6.0 °F 995.1 in WSW 20.1 mph 26.2 mph 89 % 0.0 in
02:17 7.1 °F 6.0 °F 995.1 in WSW 20.1 mph 26.7 mph 91 % 0.0 in
02:34 6.8 °F 5.0 °F 994.1 in WSW 16.9 mph 24.8 mph 90 % 0.0 in
02:41 6.8 °F 5.0 °F 994.1 in WSW 19.8 mph 27.4 mph 90 % 0.0 in
02:49 6.7 °F 6.0 °F 994.1 in WSW 20.1 mph 27.4 mph 91 % 0.0 in
02:59 6.8 °F 6.0 °F 994.1 in WSW 17.2 mph 23.8 mph 92 % 0.0 in
03:06 6.8 °F 6.0 °F 994.1 in SW 16.6 mph 24.8 mph 92 % 0.0 in
03:14 6.6 °F 6.0 °F 994.1 in WSW 11.9 mph 23.3 mph 92 % 0.0 in
03:28 6.4 °F 6.0 °F 994.1 in WSW 20.1 mph 20.6 mph 93 % 0.0 in
03:39 6.4 °F 6.0 °F 994.1 in WSW 19.8 mph 20.6 mph 94 % 0.0 in
03:50 6.4 °F 6.0 °F 994.1 in WSW 19.1 mph 22.4 mph 95 % 0.0 in
03:58 6.5 °F 6.0 °F 993.1 in WSW 16.6 mph 20.9 mph 95 % 0.0 in
04:04 6.7 °F 6.0 °F 993.1 in West 12.6 mph 23.3 mph 96 % 0.0 in
04:11 6.8 °F 6.0 °F 994.1 in WSW 12.6 mph 20.9 mph 96 % 0.0 in
04:16 6.8 °F 6.0 °F 994.1 in WSW 14.0 mph 20.9 mph 96 % 0.0 in
04:22 6.8 °F 6.0 °F 994.1 in WSW 15.1 mph 21.2 mph 96 % 0.0 in
04:31 6.9 °F 7.0 °F 993.1 in WSW 11.9 mph 20.9 mph 96 % 0.0 in
04:48 6.9 °F 7.0 °F 993.1 in WSW 14.0 mph 17.7 mph 96 % 0.0 in
05:09 6.9 °F 7.0 °F 992.1 in WSW 12.2 mph 14.0 mph 96 % 0.3 in
05:22 6.9 °F 7.0 °F 992.1 in WSW 16.9 mph 28.5 mph 96 % 0.3 in
05:28 6.9 °F 7.0 °F 993.1 in West 24.5 mph 28.5 mph 96 % 0.3 in
05:36 6.9 °F 7.0 °F 993.1 in West 17.7 mph 28.0 mph 96 % 0.3 in
05:50 6.9 °F 7.0 °F 993.1 in WSW 17.2 mph 24.8 mph 96 % 0.3 in
06:08 6.9 °F 7.0 °F 993.1 in West 17.2 mph 21.6 mph 96 % 0.0 in
06:36 6.9 °F 7.0 °F 993.1 in WSW 16.9 mph 27.0 mph 96 % 0.0 in
06:42 6.9 °F 7.0 °F 993.1 in West 28.0 mph 28.0 mph 96 % 0.0 in
06:49 6.9 °F 7.0 °F 993.1 in West 13.0 mph 28.0 mph 96 % 0.0 in
07:10 6.9 °F 7.0 °F 993.1 in WSW 21.6 mph 28.5 mph 96 % 0.0 in
07:19 7.7 °F 6.0 °F 993.1 in WSW 19.8 mph 28.0 mph 86 % 0.0 in
07:30 7.6 °F 6.0 °F 993.1 in WSW 16.9 mph 27.4 mph 85 % 0.0 in
07:44 7.4 °F 5.0 °F 993.1 in West 17.7 mph 30.9 mph 84 % 0.0 in
08:01 7.4 °F 5.0 °F 993.1 in West 15.4 mph 25.6 mph 83 % 0.0 in
08:08 7.2 °F 5.0 °F 993.1 in WSW 10.5 mph 22.7 mph 83 % 0.0 in
08:13 7.1 °F 4.0 °F 993.1 in West 23.3 mph 23.8 mph 83 % 0.0 in
08:20 7.1 °F 5.0 °F 993.1 in West 17.7 mph 26.2 mph 84 % 0.0 in
08:29 7.2 °F 5.0 °F 994.1 in West 21.2 mph 27.4 mph 83 % 0.0 in
08:35 7.1 °F 4.0 °F 994.1 in WSW 13.7 mph 24.8 mph 83 % 0.0 in
08:45 7.0 °F 4.0 °F 995.1 in West 17.7 mph 25.3 mph 83 % 0.0 in
08:59 6.7 °F 4.0 °F 994.1 in WSW 16.6 mph 20.9 mph 84 % 0.0 in
09:08 6.7 °F 4.0 °F 994.1 in West 9.0 mph 20.6 mph 84 % 0.0 in
09:13 6.6 °F 4.0 °F 995.1 in West 14.0 mph 24.8 mph 84 % 0.0 in
09:22 6.8 °F 5.0 °F 995.1 in WSW 17.2 mph 24.8 mph 85 % 0.0 in
09:28 6.8 °F 5.0 °F 995.1 in West 13.0 mph 24.8 mph 85 % 0.0 in
09:34 6.7 °F 5.0 °F 995.1 in WSW 19.5 mph 23.0 mph 85 % 0.0 in
09:48 7.0 °F 5.0 °F 995.1 in West 20.9 mph 27.7 mph 84 % 0.0 in
09:57 7.2 °F 4.0 °F 995.1 in WSW 20.9 mph 23.8 mph 80 % 0.0 in
10:09 7.1 °F 3.0 °F 995.1 in WSW 27.7 mph 28.5 mph 78 % 0.0 in
10:14 7.1 °F 3.0 °F 995.1 in West 22.7 mph 41.4 mph 76 % 0.0 in
10:26 7.1 °F 3.0 °F 996.2 in WSW 17.2 mph 32.0 mph 76 % 0.0 in
10:31 7.0 °F 3.0 °F 996.2 in West 16.3 mph 28.0 mph 76 % 0.0 in
10:36 7.0 °F 3.0 °F 996.2 in WNW 20.9 mph 25.6 mph 76 % 0.0 in
10:43 7.1 °F 3.0 °F 995.1 in West 19.1 mph 28.5 mph 75 % 0.0 in
10:51 7.2 °F 3.0 °F 995.1 in WSW 10.1 mph 29.1 mph 75 % 0.0 in
10:59 7.3 °F 3.0 °F 996.2 in West 15.8 mph 29.9 mph 75 % 0.0 in
11:12 7.4 °F 3.0 °F 996.2 in SSW 16.3 mph 27.4 mph 73 % 0.0 in
11:20 7.4 °F 3.0 °F 996.2 in WSW 16.6 mph 32.0 mph 72 % 0.0 in
11:29 7.4 °F 3.0 °F 996.8 in West 17.2 mph 30.2 mph 72 % 0.0 in
11:39 7.4 °F 3.0 °F 996.8 in West 12.2 mph 26.7 mph 72 % 0.0 in
11:52 7.4 °F 3.0 °F 996.8 in West 6.1 mph 17.2 mph 72 % 0.0 in
11:57 7.4 °F 3.0 °F 996.8 in West 11.9 mph 20.1 mph 72 % 0.0 in
12:07 8.8 °F 4.0 °F 996.8 in WSW 11.6 mph 17.2 mph 69 % 0.0 in
12:14 8.8 °F 4.0 °F 996.8 in WSW 11.6 mph 17.2 mph 69 % 0.0 in
12:31 8.5 °F 1.0 °F 996.8 in WSW 6.9 mph 28.5 mph 58 % 0.0 in
12:40 8.5 °F 1.0 °F 996.8 in West 27.7 mph 27.7 mph 58 % 0.0 in
12:47 8.5 °F 1.0 °F 996.8 in West 44.6 mph 44.6 mph 58 % 0.0 in
13:04 8.5 °F 1.0 °F 996.8 in WSW 9.7 mph 43.1 mph 58 % 0.0 in
13:15 8.5 °F 1.0 °F 996.2 in West 18.0 mph 36.0 mph 58 % 0.0 in
13:21 8.5 °F 1.0 °F 996.2 in WNW 21.6 mph 30.6 mph 58 % 0.0 in
13:31 7.9 °F 2.0 °F 996.8 in West 27.7 mph 27.7 mph 66 % 0.0 in
13:47 7.9 °F 2.0 °F 996.2 in West 20.6 mph 33.8 mph 66 % 0.0 in
13:54 7.9 °F 2.0 °F 996.2 in WSW 25.3 mph 39.3 mph 66 % 0.0 in
14:02 8.3 °F 3.0 °F 996.2 in West 19.8 mph 40.4 mph 65 % 0.0 in
14:10 8.1 °F 3.0 °F 996.2 in WSW 12.6 mph 36.0 mph 67 % 0.0 in
14:22 8.4 °F 3.0 °F 996.2 in WSW 20.9 mph 42.8 mph 65 % 0.0 in
14:32 8.5 °F 3.0 °F 995.1 in West 17.7 mph 38.5 mph 67 % 0.0 in
14:39 8.5 °F 3.0 °F 995.1 in West 25.3 mph 33.5 mph 65 % 0.0 in
14:49 8.5 °F 3.0 °F 995.1 in West 32.0 mph 40.4 mph 67 % 0.0 in
15:09 8.5 °F 2.0 °F 995.1 in West 21.6 mph 41.4 mph 63 % 0.0 in
15:21 8.5 °F 3.0 °F 995.1 in West 13.0 mph 28.5 mph 65 % 0.0 in
15:27 8.5 °F 3.0 °F 995.1 in West 33.1 mph 33.1 mph 64 % 0.0 in
15:35 8.4 °F 2.0 °F 995.1 in West 22.7 mph 36.7 mph 63 % 0.0 in
15:43 8.1 °F 2.0 °F 995.1 in West 21.2 mph 36.7 mph 64 % 0.0 in
16:09 7.5 °F 0.0 °F 996.2 in West 20.9 mph 45.7 mph 59 % 0.0 in
16:14 7.4 °F 0.0 °F 996.2 in West 11.6 mph 28.0 mph 61 % 0.0 in
16:27 7.1 °F 1.0 °F 996.2 in WSW 17.7 mph 24.8 mph 64 % 0.0 in
16:36 6.7 °F 1.0 °F 996.2 in WSW 14.0 mph 25.9 mph 67 % 0.0 in
16:56 6.3 °F 2.0 °F 995.1 in West 16.9 mph 23.0 mph 72 % 0.0 in
17:12 6.3 °F 2.0 °F 996.2 in West 20.1 mph 23.8 mph 73 % 0.0 in
17:19 6.3 °F 2.0 °F 996.2 in WNW 9.3 mph 27.7 mph 72 % 0.0 in
17:33 6.3 °F 1.0 °F 996.2 in WSW 20.6 mph 23.8 mph 70 % 0.0 in
17:47 6.1 °F 1.0 °F 995.1 in West 17.2 mph 25.3 mph 70 % 0.0 in
17:54 6.1 °F 1.0 °F 995.1 in West 15.4 mph 25.3 mph 70 % 0.0 in
18:10 6.0 °F 1.0 °F 995.1 in WSW 20.1 mph 24.8 mph 71 % 0.0 in
18:16 6.0 °F 1.0 °F 995.1 in WSW 16.3 mph 28.0 mph 71 % 0.0 in
18:23 5.9 °F 1.0 °F 995.1 in West 16.6 mph 31.7 mph 71 % 0.0 in
18:38 5.9 °F 1.0 °F 994.1 in WSW 16.6 mph 28.0 mph 70 % 0.0 in
18:45 5.9 °F 1.0 °F 994.1 in West 16.3 mph 27.4 mph 70 % 0.0 in
18:51 5.9 °F 1.0 °F 994.1 in WSW 17.7 mph 21.2 mph 70 % 0.0 in
18:58 5.8 °F 1.0 °F 995.1 in West 12.6 mph 21.2 mph 71 % 0.0 in
19:03 5.8 °F 1.0 °F 995.1 in West 13.7 mph 19.5 mph 71 % 0.0 in
19:09 5.9 °F 1.0 °F 995.1 in WSW 16.6 mph 21.6 mph 71 % 0.0 in
19:22 5.8 °F 2.0 °F 995.1 in WSW 15.4 mph 17.7 mph 72 % 0.0 in
19:28 5.8 °F 2.0 °F 995.1 in West 14.0 mph 20.9 mph 73 % 0.0 in
19:34 5.8 °F 2.0 °F 995.1 in WSW 15.8 mph 20.9 mph 73 % 0.0 in
19:40 5.8 °F 2.0 °F 995.1 in West 13.0 mph 20.6 mph 73 % 0.0 in
19:45 5.7 °F 2.0 °F 995.1 in WSW 9.7 mph 18.0 mph 74 % 0.0 in
19:50 5.6 °F 2.0 °F 995.1 in WSW 9.0 mph 14.0 mph 74 % 0.0 in
19:57 5.5 °F 2.0 °F 995.1 in WSW 9.7 mph 12.6 mph 75 % 0.0 in
20:16 5.7 °F 2.0 °F 995.1 in WSW 19.8 mph 26.2 mph 77 % 0.0 in
20:28 5.6 °F 2.0 °F 995.1 in WSW 11.6 mph 18.0 mph 78 % 0.0 in
20:34 5.5 °F 2.0 °F 995.1 in WSW 21.9 mph 21.9 mph 78 % 0.0 in
20:41 5.4 °F 2.0 °F 994.1 in WSW 16.9 mph 21.9 mph 78 % 0.0 in
20:47 5.4 °F 2.0 °F 994.1 in WSW 16.9 mph 20.9 mph 78 % 0.0 in
20:52 5.4 °F 2.0 °F 994.1 in WSW 17.2 mph 24.5 mph 78 % 0.0 in
21:04 5.5 °F 3.0 °F 995.1 in WSW 13.7 mph 25.9 mph 79 % 0.0 in
21:12 5.5 °F 3.0 °F 995.1 in WSW 12.6 mph 20.9 mph 80 % 0.0 in
21:24 5.5 °F 3.0 °F 995.1 in West 27.0 mph 34.3 mph 84 % 0.0 in
21:37 5.5 °F 3.0 °F 994.1 in WSW 12.2 mph 38.1 mph 84 % 0.0 in
21:45 5.5 °F 3.0 °F 995.1 in WSW 14.0 mph 24.5 mph 84 % 0.0 in
21:56 5.5 °F 3.0 °F 995.1 in WSW 14.0 mph 21.2 mph 84 % 0.3 in
22:01 5.5 °F 3.0 °F 995.1 in West 9.7 mph 20.9 mph 84 % 0.3 in
22:07 5.5 °F 3.0 °F 995.1 in Calm   12.6 mph 84 % 0.3 in
22:21 5.5 °F 3.0 °F 994.1 in SW 9.0 mph 12.2 mph 84 % 0.3 in
22:35 3.9 °F 3.0 °F 994.1 in SSW 10.5 mph 12.6 mph 90 % 0.3 in
22:48 3.9 °F 3.0 °F 994.1 in SW 13.7 mph 16.9 mph 90 % 0.3 in
23:03 3.9 °F 3.0 °F 994.1 in SW 8.7 mph 14.0 mph 90 % 0.0 in
23:10 3.9 °F 3.0 °F 994.1 in WSW 9.7 mph 16.6 mph 90 % 0.0 in
23:15 3.9 °F 3.0 °F 994.1 in WSW 11.1 mph 19.5 mph 90 % 0.0 in
23:27 3.9 °F 3.0 °F 994.1 in West 16.9 mph 25.6 mph 90 % 0.0 in
23:32 4.2 °F 4.0 °F 994.1 in West 18.0 mph 25.6 mph 96 % 0.0 in
23:41 4.2 °F 3.0 °F 994.1 in West 14.3 mph 21.9 mph 94 % 0.0 in
23:55 4.2 °F 3.0 °F 994.1 in West 20.6 mph 24.8 mph 94 % 0.0 in
Le Gheer Warneton
Courtoisie de Weather Underground - 1.5 mb

Mise a jour : 24/02/2018 01:26:11
Généré par Cumulus 1.9.4 (1099)